{"data":{"norad_id":67110,"epoch":"2026-05-25T03:07:53.679360Z","epoch_age_seconds":57594,"freshness":"FRESH","line1":"1 67110U 25299J   26145.13048240  .00015580  00000+0  57430-3 0  9992","line2":"2 67110  43.0009  97.5723 0001469 263.8142  96.2542 15.27590979 24808","mean_motion":15.27590979,"eccentricity":0.0001469,"inclination_deg":43.0009,"raan_deg":97.5723,"arg_perigee_deg":263.8142,"mean_anomaly_deg":96.2542,"bstar":0.0005743,"rev_number":2480,"period_min":94.266071205963,"perigee_km":482.00831775269,"apogee_km":484.02412456907,"semimajor_km":6861.1532211609,"source":"CELESTRAK","updated_at":"2026-05-25T13:38:21.474282Z"}}